Weather in Khidi-Khutor

Russia / Chechen Republic     43°06′45″N   46°08′44″E
temp.,
°C
wind,
m/s
gust,
m/s
humid.,
%
clouds,
%
prec.,
mm/h
press.,
hPa
HPBL,
m
17 april, sat
sat1700:00+10s33660 0.0 101929
03:00+9s33625 0.0 101835
06:00+10s335934 0.0 101844
09:00+18n1138100 0.0 1016792
12:00+18nw444596 0.0 10181234
15:00+16nw445595 0.0 10191349
18:00+13w2567100 0.0 1020553
21:00+10nw1385100 0.0 1021395
18 april, sun
sun1800:00+10nw1190100 0.0 1021173
03:00+9nnw1192100 0.1 1020155
06:00+8n1292100 0.0 1020209
09:00+12nne2277100 0.0 1018447
12:00+15n326462 0.2 1016956
15:00+13nne227196 1.0 1017783
18:00+12nnw1179100 0.4 101883
21:00+10s4592100 2.2 1020187
19 april, mon
mon1900:00+10sse228186 0.9 101734
03:00+10sse2177100 0.9 101712
06:00+11sse1169100 0.0 101711
09:00+17nne225493 0.0 1016662
12:00+19nne3348100 0.0 10151344
15:00+19ne344774 0.0 10141417
18:00+15n126836 0.0 101440
21:00+13ssw217465 0.0 101513
20 april, tue
tue2000:00+12sse117769 0.0 101418
03:00+12sse227187 0.0 101231
06:00+13s2265100 0.0 101133
09:00+23se133561 0.0 1007423
12:00+28ene132788 0.0 10051140
15:00+28nnw2329100 0.0 10031603
18:00+21ssw1153100 0.0 100417
21:00+18s3359100 0.2 100781
21 april, wed
wed2100:00+14wnw1276100 0.1 101254
03:00+12w378998 0.1 1014566
06:00+10w2793100 0.2 1017615
09:00+10wnw3692100 0.3 1018640
12:00+10wnw2589100 0.2 1019743
15:00+8sw2391100 2.4 1020355
18:00+8wnw239497 7.1 1021305
21:00+7wsw129599 8.8 1022205